Burlington, VT

9:47 AM EST on November 22, 2019 (GMT -0500)
Burlington International

Weather History for KBTV - September, 2019

Change the Weather History Date:

Tuesday, September 3, 2019

  Actual Average Record
Temperature  
Mean Temperature 64 °F 65 °F  
Max Temperature 71 °F 76 °F 93 °F (2018)
Min Temperature 57 °F 55 °F 38 °F (1960)
Degree Days  
Heating Degree Days 1 2  
Month to date heating degree days 4 6  
Since 1 July heating degree days 8 48  
Cooling Degree Days 0 3  
Month to date cooling degree days 0 9  
Year to date cooling degree days 580 457  
Growing Degree Days 14 (Base 50)    
Moisture  
Dew Point 54 °F    
Average Humidity 72    
Maximum Humidity 100    
Minimum Humidity 44    
Precipitation  
Precipitation 0.03 in 0.11 in 1.41 in (1906)
Month to date precipitation 1.29 0.33  
Year to date precipitation 27.58 24.40  
Snow  
Snow 0.00 in 0.00 in 0.00 in (2002)
Month to date snowfall 0.0 0.0  
Since 1 July snowfall 0.0 0.0  
Since 1 September snowfall 0.0 0.0  
Snow Depth 0.00 in    
Sea Level Pressure  
Sea Level Pressure 30.03 in    
Wind  
Wind Speed 5 mph (NNW)    
Max Wind Speed 16 mph    
Max Gust Speed 20 mph    
Visibility 8 miles    
Events Fog , Rain    
T = Trace of Precipitation, MM = Missing Value Source: NWS Daily Summary

Daily Weather History Graph

Daily Weather History Graph

Search for Another Location

Airport or City:

Astronomy

Sep. 03, 2019 Rise Set
Actual Time 6:17 AM EDT 7:25 PM EDT
Civil Twilight 5:47 AM EDT 7:55 PM EDT
Nautical Twilight 5:11 AM EDT 8:31 PM EDT
Astronomical Twilight 4:33 AM EDT 9:09 PM EDT
Moon 11:17 AM EDT (9/3) 10:09 PM EDT (9/3)
Length of Visible Light 14h 08m
Length of Day
13h 08m
Waxing Crescent, 24% of the Moon is Illuminated
Sep 3
Waxing Crescent
Sep 5
First Quarter
Sep 14
Full
Sep 21
Last Quarter
Sep 28
New

Hourly Weather History & Observations

Time (EDT) Temp. Dew Point Humidity Pressure Visibility Wind Dir Wind Speed Gust Speed Precip Events Conditions
12:17 AM 59.0 °F 55.9 °F 90% 29.99 in 2.0 mi Calm Calm - N/A   Scattered Clouds
12:19 AM 57.9 °F 55.9 °F 93% 29.99 in 1.0 mi Calm Calm - N/A   Mist
12:26 AM 57.9 °F 55.9 °F 93% 29.99 in 0.5 mi Calm Calm - N/A Fog Fog
12:54 AM 57.9 °F 57.0 °F 97% 30.00 in 0.5 mi Calm Calm - N/A Fog Fog
12:57 AM 57.0 °F 55.9 °F 96% 30.00 in 1.2 mi Calm Calm - N/A   Overcast
12:59 AM 57.0 °F 55.9 °F 96% 30.00 in 2.0 mi Calm Calm - N/A   Overcast
1:01 AM 57.9 °F 55.9 °F 93% 30.00 in 4.0 mi Calm Calm - N/A   Overcast
1:54 AM 59.0 °F 57.0 °F 93% 30.01 in 10.0 mi Calm Calm - N/A   Overcast
2:27 AM 60.1 °F 57.9 °F 93% 30.01 in 6.0 mi Calm Calm - 0.01 in Rain Light Rain
2:35 AM 60.1 °F 57.9 °F 93% 30.00 in 7.0 mi Calm Calm - 0.03 in Rain Light Rain
2:54 AM 59.0 °F 57.0 °F 93% 29.99 in 6.0 mi ESE 5.8 mph - 0.03 in   Overcast
3:35 AM 59.0 °F 57.9 °F 96% 29.98 in 10.0 mi Calm Calm - N/A   Overcast
3:54 AM 60.1 °F 57.0 °F 90% 29.98 in 10.0 mi Calm Calm - N/A   Overcast
4:12 AM 60.1 °F 57.9 °F 93% 29.98 in 10.0 mi Calm Calm - N/A   Overcast
4:18 AM 60.1 °F 57.9 °F 93% 29.99 in 10.0 mi NNW 5.8 mph - N/A   Overcast
4:25 AM 60.1 °F 57.9 °F 93% 29.99 in 10.0 mi Calm Calm - 0.00 in Rain Light Rain
4:54 AM 60.1 °F 57.0 °F 90% 30.01 in 10.0 mi NNW 15.0 mph - 0.00 in   Overcast
5:16 AM 59.0 °F 55.9 °F 90% 30.03 in 10.0 mi NNW 13.8 mph - 0.00 in Rain Light Rain
5:33 AM 57.9 °F 55.0 °F 90% 30.04 in 10.0 mi NNW 8.1 mph 19.6 mph 0.00 in Rain Light Rain
5:54 AM 57.0 °F 54.0 °F 89% 30.06 in 10.0 mi NNW 10.4 mph - 0.00 in Rain Light Rain
6:54 AM 57.0 °F 54.0 °F 89% 30.09 in 10.0 mi North 4.6 mph - 0.00 in   Mostly Cloudy
7:54 AM 60.1 °F 54.0 °F 80% 30.10 in 10.0 mi North 9.2 mph - N/A   Scattered Clouds
8:54 AM 60.1 °F 54.0 °F 80% 30.11 in 10.0 mi North 8.1 mph - N/A   Scattered Clouds
9:54 AM 62.1 °F 52.0 °F 70% 30.10 in 10.0 mi North 8.1 mph - N/A   Scattered Clouds
10:18 AM 62.1 °F 52.0 °F 70% 30.10 in 10.0 mi North 8.1 mph - N/A   Mostly Cloudy
10:54 AM 64.0 °F 51.1 °F 63% 30.11 in 10.0 mi NW 8.1 mph - N/A   Mostly Cloudy
11:24 AM 64.9 °F 52.0 °F 63% 30.10 in 10.0 mi NW 8.1 mph - N/A   Mostly Cloudy
11:54 AM 66.0 °F 52.0 °F 60% 30.10 in 10.0 mi NNW 6.9 mph - N/A   Mostly Cloudy
12:54 PM 66.9 °F 51.1 °F 57% 30.09 in 10.0 mi NW 6.9 mph - N/A   Scattered Clouds
1:54 PM 68.0 °F 50.0 °F 52% 30.07 in 10.0 mi WNW 4.6 mph - N/A   Scattered Clouds
2:54 PM 69.1 °F 46.9 °F 45% 30.06 in 10.0 mi Calm Calm - N/A   Partly Cloudy
3:54 PM 71.1 °F 48.0 °F 44% 30.03 in 10.0 mi Calm Calm - N/A   Scattered Clouds
4:54 PM 70.0 °F 50.0 °F 49% 30.02 in 10.0 mi West 4.6 mph - N/A   Mostly Cloudy
5:54 PM 69.1 °F 51.1 °F 53% 30.01 in 10.0 mi WSW 4.6 mph - N/A   Mostly Cloudy
6:54 PM 66.0 °F 53.1 °F 63% 30.01 in 10.0 mi Calm Calm - N/A   Mostly Cloudy
7:54 PM 64.9 °F 54.0 °F 68% 30.01 in 10.0 mi Calm Calm - N/A   Mostly Cloudy
8:54 PM 64.0 °F 55.9 °F 75% 30.02 in 10.0 mi Calm Calm - N/A   Mostly Cloudy
9:54 PM 63.0 °F 57.0 °F 81% 29.99 in 10.0 mi SE 3.5 mph - N/A   Mostly Cloudy
10:54 PM 63.0 °F 55.9 °F 78% 29.96 in 10.0 mi South 5.8 mph - N/A   Mostly Cloudy
11:54 PM 64.0 °F 57.0 °F 78% 29.93 in 10.0 mi South 4.6 mph - N/A   Scattered Clouds